• Join FlightAware (Why Join?)
  • Login
  • US Flag 
01:36PM EDT


 

Airport Tracker/Info


-or-


 

Live Flight TrackerFlight Track Log ✈ UAL5908 ✈ 29-Apr-2013 ✈ KBOS - KIAD

Flight Track Log - Related Links

Times and Time Zones

All times are in EDT time to prevent confusion due to time zone crossing. See the UAL5908 flight status page for this flight to view local times or setup timezone preferences in your user account.

Time Position Orientation Groundspeed Altitude Reporting Facility
EDT Latitude Longitude Course Direction KTS MPH feet Rate Location/Type
05:37PM 42.3667 -71.0167 240° Southwest 152 175 500  Level KA90
05:38PM 42.3167 -70.9667 144° Southeast 212 244 3,100 2,400 Climbing KA90
05:39PM 42.3167 -70.8833 90° East 258 297 5,700 2,580 Climbing KA90
05:40PM 42.2971 -70.7210 228° Southwest  Level FlightAware Approximate
05:40PM 42.3300 -70.7803 80° East 277 319 8,900  Level Boston Center
05:41PM 42.2327 -70.8182 240° Southwest  Level FlightAware Approximate
05:41PM 42.2706 -70.7203 143° Southeast 235 270 11,700  Level Boston Center
05:42PM 42.1843 -70.9310 240° Southwest  Level FlightAware Approximate
05:42PM 42.1881 -70.7700 204° Southwest 216 249 12,500  Level Boston Center
05:43PM 42.1753 -70.9050 263° West 264 304 14,500 1,920 Climbing Boston Center
05:44PM 42.1753 -71.0561 270° West 348 400 16,400 1,260 Climbing Boston Center
05:45PM 42.1747 -71.1878 270° West 387 445 17,300 1,140 Climbing Boston Center
05:46PM 42.1742 -71.3503 270° West 400 460 19,000 1,680 Climbing Boston Center
05:47PM 42.1717 -71.5156 269° West 406 467 20,700 1,440 Climbing Boston Center
05:48PM 42.1475 -71.6589 257° West 401 461 21,900 1,080 Climbing Boston Center
05:49PM 42.1278 -71.8103 260° West 401 461 22,900 960 Climbing Boston Center
05:50PM 42.1075 -71.9644 260° West 417 480 23,900 900 Climbing Boston Center
05:51PM 42.0872 -72.1183 260° West 417 480 24,800 900 Climbing Boston Center
05:52PM 42.0647 -72.2750 259° West 422 486 25,800 900 Climbing Boston Center
05:53PM 42.0439 -72.4289 260° West 422 486 26,700 900 Climbing Boston Center
05:54PM 42.0253 -72.5797 261° West 422 486 27,700 1,440 Climbing Boston Center
05:55PM 41.9894 -72.7139 250° West 406 467 29,600 1,800 Climbing Boston Center
05:56PM 41.9142 -72.8475 233° Southwest 382 440 31,700 1,080 Climbing Boston Center
05:57PM 41.8511 -72.9639 234° Southwest 382 440 32,000 120 Climbing Boston Center
05:58PM 41.7942 -73.0667 233° Southwest 400 460 32,000  Level Boston Center
06:00PM 41.6419 -73.3278 232° Southwest 409 471 32,000  Level New York Center
06:01PM 41.5792 -73.4419 234° Southwest 395 455 32,000  Level New York Center
06:02PM 41.5119 -73.5611 233° Southwest 395 455 32,000  Level New York Center
06:03PM 41.4444 -73.6772 232° Southwest 400 460 32,000  Level New York Center
06:04PM 41.3750 -73.7958 232° Southwest 405 466 32,000  Level New York Center
06:05PM 41.3072 -73.9114 232° Southwest 405 466 32,000  Level New York Center
06:06PM 41.2375 -74.0294 232° Southwest 399 459 32,000  Level New York Center
06:07PM 41.1717 -74.1475 233° Southwest 393 452 32,000 -360 Level New York Center
06:08PM 41.0911 -74.2703 229° Southwest 406 467 31,300 -900 Descending New York Center
06:09PM 41.0206 -74.3931 233° Southwest 414 476 30,200 -1,380 Descending New York Center
06:10PM 40.9503 -74.5131 232° Southwest 419 482 28,600 -1,140 Descending New York Center
06:11PM 40.8878 -74.6411 237° Southwest 419 482 28,000 -360 Descending New York Center
06:12PM 40.8392 -74.7839 246° West 419 482 28,000  Level New York Center
06:13PM 40.7761 -74.9197 239° Southwest 430 495 28,000 -420 Level New York Center
06:14PM 40.7133 -75.0503 238° Southwest 430 495 27,200 -900 Descending New York Center
06:15PM 40.6519 -75.1886 240° Southwest 430 495 26,200 -1,200 Descending New York Center
06:16PM 40.5886 -75.3211 238° Southwest 435 501 24,800 -1,500 Descending New York Center
06:17PM 40.5272 -75.4508 238° Southwest 435 501 23,300 -1,800 Descending New York Center
06:18PM 40.4656 -75.5806 238° Southwest 435 501 21,300 -1,620 Descending New York Center
06:19PM 40.4064 -75.7072 239° Southwest 429 494 20,100 -660 Descending New York Center
06:20PM 40.3469 -75.8308 238° Southwest 417 480 20,000 -60 Descending New York Center
06:21PM 40.2878 -75.9436 236° Southwest 417 480 20,000 -360 Level New York Center
06:22PM 40.2303 -76.0672 239° Southwest 412 474 19,300 -1,440 Descending New York Center
06:23PM 40.1658 -76.1981 237° Southwest 402 463 17,200 -1,740 Descending New York Center
06:24PM 40.1083 -76.3156 237° Southwest 397 457 15,900 -780 Descending New York Center
06:26PM 40.0167 -76.5167 239° Southwest 381 438 15,000 -360 Descending Potomac TRACON
06:27PM 39.9667 -76.6500 244° Southwest 379 436 15,000  Level Potomac TRACON
06:28PM 39.9000 -76.7833 237° Southwest 381 438 15,000 -300 Level Potomac TRACON
06:29PM 39.8333 -76.9000 233° Southwest 374 430 14,500 -780 Descending Potomac TRACON
06:30PM 39.7833 -77.0167 241° Southwest 362 417 13,500 -1,500 Descending Potomac TRACON
06:31PM 39.7333 -77.1000 232° Southwest 344 396 11,700 -1,560 Descending Potomac TRACON
06:32PM 39.6833 -77.2000 237° Southwest 321 369 10,600 -1,200 Descending Potomac TRACON
06:33PM 39.6333 -77.2500 218° Southwest 281 323 9,400 -1,380 Descending Potomac TRACON
06:34PM 39.5500 -77.3167 212° Southwest 268 308 7,800 -1,200 Descending Potomac TRACON
06:35PM 39.5167 -77.3667 229° Southwest 238 274 7,100 -480 Descending Potomac TRACON
06:36PM 39.4833 -77.4333 237° Southwest 233 268 7,000 -480 Descending Potomac TRACON
06:37PM 39.4167 -77.4500 191° South 228 262 6,200 -840 Descending Potomac TRACON
06:38PM 39.3667 -77.4500 180° South 223 257 5,400 -600 Descending Potomac TRACON
06:39PM 39.3000 -77.4500 180° South 218 251 5,000 -240 Descending Potomac TRACON
06:40PM 39.2333 -77.4500 180° South 190 219 5,000 -240 Level Potomac TRACON
06:41PM 39.1833 -77.4500 180° South 194 223 4,600 -780 Descending Potomac TRACON
06:42PM 39.1333 -77.4500 180° South 182 209 3,500 -960 Descending Potomac TRACON
06:43PM 39.0833 -77.4500 180° South 176 203 2,700 -900 Descending Potomac TRACON
06:44PM 39.0500 -77.4667 201° Southwest 134 154 1,900 -840 Descending Potomac TRACON
06:45PM 39.0167 -77.4667 180° South 133 153 1,200 -780 Descending Potomac TRACON
06:46PM 38.9833 -77.4667 180° South 136 157 500 -720 Descending Potomac TRACON